Weather History for Pleasanton, TX

Change the Weather History Date:

Sunday, January 20, 2013

  Actual Average Record
Temperature  
Mean Temperature 56 °F -  
Max Temperature 72 °F 61 °F 81 °F (2014)
Min Temperature 39 °F 38 °F 31 °F (1992)
Degree Days  
Heating Degree Days 10    
Growing Degree Days 6 (Base 50)    
Moisture  
Dew Point 43 °F    
Average Humidity 67    
Maximum Humidity 89    
Minimum Humidity 31    
Precipitation  
Precipitation 0.00 in - - ()
Sea Level Pressure  
Sea Level Pressure 30.18 in    
Wind  
Wind Speed 1 mph (South)    
Max Wind Speed 8 mph    
Max Gust Speed -    
Visibility 10 miles    
Events      
Averages and records for this station are not official NWS values.
T = Trace of Precipitation, MM = Missing Value Source: NWS Daily Summary

Daily Weather History Graph

Daily Weather History Graph

Search for Another Location

Airport:

Trip Planner

Search our weather history database for the weather conditions in past years. The results will help you decide how hot, cold, wet, or windy it might be!

Date:

Astronomy

Jan. 20, 2013 Rise Set
Actual Time 7:27 AM CST 6:03 PM CST
Civil Twilight 7:02 AM CST 6:28 PM CST
Nautical Twilight 6:33 AM CST 6:57 PM CST
Astronomical Twilight 6:05 AM CST 7:25 PM CST
Moon 1:04 PM CST (1/20) 2:03 AM CST (1/20)
Length of Visible Light 11h 26m
Length of Day
10h 35m
Waxing Gibbous, 66% of the Moon is Illuminated
Jan 20
Waxing Gibbous
Jan 26
Full
Feb 3
Last Quarter
Feb 10
New
Feb 17
First Quarter

Hourly Weather History & Observations

Time (CST) Temp. Dew Point Humidity Pressure Visibility Wind Dir Wind Speed Gust Speed Precip Events Conditions
12:15 AM 50.7 °F 41.0 °F 69% 30.23 in 10.0 mi Calm Calm - N/A   Clear
12:35 AM 48.4 °F 40.3 °F 74% 30.23 in 10.0 mi Calm Calm - N/A   Clear
12:55 AM 46.2 °F 39.9 °F 79% 30.24 in 10.0 mi Calm Calm - N/A   Clear
1:15 AM 44.1 °F 39.2 °F 83% 30.23 in 10.0 mi Calm Calm - N/A   Clear
1:35 AM 43.5 °F 39.6 °F 86% 30.23 in 10.0 mi Calm Calm - N/A   Clear
1:55 AM 43.3 °F 39.0 °F 85% 30.23 in 10.0 mi Calm Calm - N/A   Clear
2:15 AM 43.0 °F 39.2 °F 86% 30.22 in 10.0 mi Calm Calm - N/A   Clear
2:35 AM 43.5 °F 39.6 °F 86% 30.22 in 10.0 mi Calm Calm - N/A   Clear
2:55 AM 42.3 °F 37.9 °F 85% 30.22 in 10.0 mi Calm Calm - N/A   Clear
3:15 AM 42.3 °F 38.3 °F 86% 30.21 in 10.0 mi Calm Calm - N/A   Clear
3:35 AM 40.1 °F 36.3 °F 86% 30.21 in 10.0 mi Calm Calm - N/A   Clear
3:55 AM 40.8 °F 37.6 °F 88% 30.21 in 10.0 mi Calm Calm - N/A   Clear
4:15 AM 40.1 °F 36.3 °F 86% 30.21 in 10.0 mi Calm Calm - N/A   Clear
4:35 AM 39.9 °F 36.9 °F 89% 30.21 in 10.0 mi Calm Calm - N/A   Clear
4:55 AM 41.2 °F 38.1 °F 89% 30.20 in 10.0 mi Calm Calm - N/A   Clear
5:15 AM 41.2 °F 37.8 °F 88% 30.21 in 10.0 mi Calm Calm - N/A   Clear
5:35 AM 41.2 °F 38.3 °F 89% 30.21 in 10.0 mi Calm Calm - N/A   Clear
5:55 AM 40.3 °F 37.0 °F 88% 30.21 in 10.0 mi Calm Calm - N/A   Clear
6:15 AM 39.6 °F 36.1 °F 88% 30.21 in 10.0 mi Calm Calm - N/A   Clear
6:35 AM 39.2 °F 36.0 °F 88% 30.22 in 10.0 mi Calm Calm - N/A   Clear
6:55 AM 39.6 °F 36.3 °F 88% 30.23 in 10.0 mi Calm Calm - N/A   Clear
7:15 AM 39.2 °F 36.1 °F 89% 30.23 in 7.0 mi Calm Calm - N/A   Clear
7:35 AM 39.4 °F 36.5 °F 89% 30.24 in 7.0 mi Calm Calm - N/A   Clear
7:55 AM 39.6 °F 36.7 °F 89% 30.24 in 7.0 mi Calm Calm - N/A   Clear
8:15 AM 42.1 °F 39.0 °F 89% 30.24 in 7.0 mi Calm Calm - N/A   Clear
8:35 AM 45.5 °F 42.1 °F 88% 30.25 in 7.0 mi Calm Calm - N/A   Clear
8:55 AM 47.8 °F 43.3 °F 84% 30.26 in 10.0 mi Calm Calm - N/A   Clear
9:15 AM 51.1 °F 45.3 °F 81% 30.26 in 10.0 mi Calm Calm - N/A   Scattered Clouds
9:35 AM 53.4 °F 45.9 °F 76% 30.26 in 10.0 mi Calm Calm - N/A   Clear
9:55 AM 56.5 °F 46.9 °F 70% 30.27 in 10.0 mi Calm Calm - N/A   Clear
10:15 AM 58.5 °F 47.3 °F 66% 30.27 in 10.0 mi Calm Calm - N/A   Clear
10:35 AM 60.4 °F 47.1 °F 61% 30.27 in 10.0 mi Calm Calm - N/A   Clear
10:55 AM 62.1 °F 47.5 °F 59% 30.26 in 10.0 mi Calm Calm - N/A   Mostly Cloudy
11:15 AM 64.8 °F 48.9 °F 56% 30.26 in 10.0 mi SSW 5.8 mph - N/A   Scattered Clouds
11:35 AM 65.5 °F 49.5 °F 56% 30.25 in 10.0 mi SSW 3.5 mph - N/A   Clear
11:55 AM 67.3 °F 49.3 °F 52% 30.24 in 10.0 mi SSE 4.6 mph - N/A   Clear
12:15 PM 67.6 °F 49.3 °F 52% 30.22 in 10.0 mi Calm Calm - N/A   Clear
12:55 PM 69.1 °F 48.2 °F 47% 30.19 in 10.0 mi SSW 5.8 mph - N/A   Scattered Clouds
1:15 PM 69.1 °F 47.1 °F 45% 30.17 in 10.0 mi Calm Calm - N/A   Scattered Clouds
1:35 PM 71.1 °F 44.6 °F 39% 30.16 in 10.0 mi West 3.5 mph - N/A   Scattered Clouds
1:55 PM 69.6 °F 44.2 °F 40% 30.15 in 10.0 mi Calm Calm - N/A   Clear
2:15 PM 71.1 °F 43.7 °F 37% 30.13 in 10.0 mi East 3.5 mph - N/A   Clear
2:35 PM 72.5 °F 43.3 °F 35% 30.13 in 10.0 mi SSW 5.8 mph - N/A   Clear
2:55 PM 72.9 °F 43.2 °F 34% 30.12 in 10.0 mi ESE 3.5 mph - N/A   Scattered Clouds
3:15 PM 72.7 °F 41.7 °F 33% 30.12 in 10.0 mi SSE 8.1 mph - N/A   Scattered Clouds
3:35 PM 72.7 °F 40.8 °F 32% 30.11 in 10.0 mi SE 5.8 mph - N/A   Clear
3:55 PM 72.5 °F 40.3 °F 31% 30.11 in 10.0 mi SW 4.6 mph - N/A   Clear
4:15 PM 71.1 °F 41.0 °F 34% 30.11 in 10.0 mi Calm Calm - N/A   Clear
4:35 PM 71.2 °F 41.2 °F 34% 30.10 in 10.0 mi SW 3.5 mph - N/A   Clear
4:55 PM 70.2 °F 41.9 °F 36% 30.11 in 10.0 mi Calm Calm - N/A   Clear
5:15 PM 70.5 °F 41.9 °F 35% 30.11 in 10.0 mi Calm Calm - N/A   Clear
5:35 PM 67.8 °F 45.0 °F 44% 30.11 in 10.0 mi Calm Calm - N/A   Clear
5:55 PM 65.5 °F 44.6 °F 47% 30.11 in 10.0 mi Calm Calm - N/A   Clear
6:15 PM 61.9 °F 46.9 °F 58% 30.11 in 10.0 mi Calm Calm - N/A   Clear
6:35 PM 58.8 °F 46.4 °F 63% 30.11 in 10.0 mi Calm Calm - N/A   Clear
6:55 PM 59.4 °F 46.4 °F 62% 30.11 in 10.0 mi Calm Calm - N/A   Clear
7:15 PM 57.9 °F 45.7 °F 64% 30.12 in 10.0 mi Calm Calm - N/A   Clear
7:35 PM 57.4 °F 46.0 °F 66% 30.12 in 10.0 mi Calm Calm - N/A   Clear
7:55 PM 56.8 °F 45.9 °F 67% 30.12 in 10.0 mi Calm Calm - N/A   Clear
8:15 PM 56.3 °F 45.5 °F 67% 30.13 in 10.0 mi Calm Calm - N/A   Clear
8:35 PM 56.1 °F 45.5 °F 68% 30.13 in 10.0 mi Calm Calm - N/A   Clear
8:55 PM 54.0 °F 45.5 °F 73% 30.13 in 10.0 mi Calm Calm - N/A   Clear
9:15 PM 52.5 °F 44.8 °F 75% 30.14 in 10.0 mi ESE 3.5 mph - N/A   Clear
9:35 PM 55.4 °F 43.9 °F 65% 30.14 in 10.0 mi Calm Calm - N/A   Clear
9:55 PM 55.6 °F 43.7 °F 64% 30.14 in 10.0 mi Calm Calm - N/A   Clear
10:15 PM 55.8 °F 44.1 °F 65% 30.15 in 10.0 mi Calm Calm - N/A   Clear
10:35 PM 54.9 °F 44.6 °F 68% 30.15 in 10.0 mi Calm Calm - N/A   Clear
10:55 PM 55.0 °F 45.5 °F 70% 30.16 in 10.0 mi Calm Calm - N/A   Clear
11:15 PM 54.3 °F 45.5 °F 72% 30.15 in 10.0 mi Calm Calm - N/A   Clear
11:35 PM 54.0 °F 45.3 °F 73% 30.16 in 10.0 mi Calm Calm - N/A   Clear
11:55 PM 53.6 °F 45.7 °F 75% 30.15 in 10.0 mi Calm Calm - N/A   Clear